Showing default

KAISTSAT 4, 27945

Orbit data source: Space-Track

KAISTSAT 4, 27945 is a South Korean payload satellite in SSO that was launched on Sat, 27 Sep 2003 UTC via a KOSMOS 11K65M launch vehicle from the Plesetsk Missile And Space Complex (PKMTR). Payload-class satellites include a variety of spacecraft equipped with specific instruments for various scientific and technological missions. These include communications satellites like Starlink; space stations such as the ISS; scientific satellites like the Hubble; Earth observation satellites from companies like Planet Labs, Umbra, and HawkEye 360; GPS; miniature CubeSats for education and research; and military/defense satellites.

Loading next visibility...
Identifier
27945, 2003-042G
Orbit
SSO
Country
Flag of UnknownUnknown / SKOR
Related business
Manufacturer
SatRec Initiative
Mission
Non-operational Civil Ast/Sci
Bus & Motor
SI-200, Unknown motor
Mass
106 kg wet, 106 kg dry
Launch date (UTC)
2003-09-27 (22 years ago)
Launch vehicle
KOSMOS 11K65M
Launch site
Plesetsk Missile And Space Complex (PKMTR)
Object type
Payload
Rocket body
Debris
Shape & HBR
Box, 0.5 m
Radar Cross Section
0.945 m², Medium (>0.1 m² and < 1m²)

Expand to show TLE details & history
Last TLE update: 16 hours ago

TLE from 16 hours ago
0 KAISTSAT 4
1 27945U 03042G   25311.00829588  .00000720  00000-0  13579-3 0  9995
2 27945  98.3613 109.8410 0010660 320.7348  39.3082 14.67596072181442
Epoch: 2025-11-07T00:11Z
TLE epoch observation values (Epoch: 2025-11-07T00:11:56.764Z)
Latitude
0.00003°
Longitude
60.39605°
Altitude
665.933 km
Speed
7.527 km/s
True Right ascension
07h 19m 21s
True Declination
0° 00' 00"
Sunlit
Object was in daylight at epoch
Visualization orbit readout
Latitude
Unknown
Longitude
Unknown
Altitude
Unknown
Speed
Unknown
Apparent Right ascension
Unknown
Apparent Declination
Unknown
Sunlit
N/A
Visualization observer readout
Local Sidereal Time
12:11:15
Azimuth
Unknown
Elevation
Unknown
Doppler factor
Unknown
Orbital elements
Apogee altitude
673.34 km
Perigee altitude
658.323 km
Semi-major axis
7,043.968 km
Eccentricity
0.00107
Inclination
98.3613°
RAAN
109.841°
Arg. of periapsis
320.7348°
True anomaly
39.38566°
Mean anomaly
39.3082°
Eccentric anomaly
39.34692°
Mean motion
3.67128 °/min
Orbital period
98.06 mins
BSTAR
0.00013579
Loading maneuver chart data...
Computing Atmospheric mass density...
Loading historical data...
Loading historical data...
Loading historical data...
Loading historical data...
Loading historical data...
Loading historical data...
Loading historical data...

Documentation

Showing up to 5 results
|